Location: Saluda
(35.2377°N, 82.3468°W)
Time: 04:43:34
(UTC+00:00)

Vanguard 2 Rocket - Pass Details

Date: 07 October 2022
Orbit: 555 x 3321 km, 32.9° (Epoch: 05 December)

Event Time Altitude Azimuth Distance (km) Brightness Sun altitude
Rises 08:46:51 0° 280° (W) 4,941 - -33.5°
Reaches altitude 10° 08:51:19 10° 270° (W) 3,441 - -32.6°
Maximum altitude 08:57:41 26° 218° (SW) 1,820 - -31.4°
Drops below altitude 10° 09:02:03 10° 161° (SSE) 2,277 - -30.5°
Exits shadow 09:02:37 - 157° (SSE) 2,435 9.2 -30.4°
Sets 09:04:23 0° 147° (SSE) 2,998 9.8 -30.1°
